Location: Unspecified
(0.0000°N, 0.0000°E)
Time: 03:48:01
(UTC+02:00)

ARIANE 5 R/B - Visible Passes

Search period start: 19 October 2017 00:00
Search period end: 29 October 2017 00:00
Orbit: 570 x 35647 km, 7.5° (Epoch: 18 October)

Date Brightness Start Highest point End Pass type
(mag) Time Alt. Az. Time Alt. Az. Time Alt. Az.
19 Oct 6.3 06:00:15 28° W 07:27:05 47° WNW 15:32:01 10° ESE visible
20 Oct 8.1 03:11:54 80° NNW 03:17:45 81° N 12:35:03 10° E visible
20 Oct 6.5 23:34:51 10° W 00:23:32 34° E 09:32:21 10° E visible
21 Oct 4.2 20:38:44 10° WSW 20:42:22 55° SSE 20:49:15 18° E visible
22 Oct 11.6 02:26:49 10° E 04:44:20 20° E 05:58:16 10° E visible
23 Oct 6.6 05:22:41 39° W 06:44:55 56° WNW 14:50:49 10° ESE visible
24 Oct 8.5 02:34:20 77° NE 02:34:20 77° NE 11:53:17 10° E visible
24 Oct 5.8 22:53:34 10° W 23:46:00 25° E 08:48:25 10° E visible
25 Oct 4.1 19:57:24 10° WSW 20:00:42 47° SSE 20:08:13 10° E visible
26 Oct 11.7 03:06:21 10° E 04:03:34 12° E 04:45:59 10° E visible
27 Oct 7.0 04:45:10 50° WNW 06:02:32 65° WNW 14:09:31 10° ESE visible
28 Oct 7.8 01:09:32 10° W 01:56:49 67° ENE 11:11:16 10° E visible
